Location: Newark
(8.1700°N, 77.4300°E)
Time: 23:03:26
(UTC+00:00)

Hubble Space Telescope - Pass Details

Date: 29 August 2019
Orbit: 536 x 540 km, 28.5° (Epoch: 17 September)

Event Time Altitude Azimuth Distance (km) Brightness Sun altitude
Rises 13:47:23 0° 297° (WNW) 2,664 6.0 -12.3°
Reaches altitude 10° 13:49:39 10° 296° (WNW) 1,774 4.8 -12.9°
Maximum altitude 13:53:45 78° 210° (SSW) 545 0.8 -13.9°
Enters shadow 13:56:15 23° 126° (SE) 1,169 1.9 -14.5°
